Location: Iesi
(43.5167°N, 13.2333°E)
Time: 03:07:50
(UTC+00:00)

Cosmos 1184 Rocket - Pass Details

Date: 08 August 2020
Orbit: 406 x 422 km, 81.2° (Epoch: 27 September)

Event Time Altitude Azimuth Distance (km) Brightness Sun altitude
Exits shadow 20:15:57 59° 110° (ESE) 496 2.7 -18.2°
Maximum altitude 20:16:04 60° 98° (E) 493 2.8 -18.2°
Drops below altitude 10° 20:19:21 10° 17° (NNE) 1,527 5.9 -18.7°
Sets 20:21:25 0° 14° (NNE) 2,398 7.0 -18.9°
